Lapse_Rate
6.2 4.0 3.5 3.8 4.2 4.5 4.4 4.4 4.4 4.1 4.3 4.7 4.9 5.1 5.2 5.3 5.5 5.5 5.5 5.3 5.2 5.1 5.0 4.9 4.7 4.8 4.6 4.5 4.2 4.2 4.2 4.2 4.5 4.8 6.1 6.8 6.5 5.9 5.8 6.1 7.3 6.3 6.0
6.0 4.7 3.6 3.9 4.4 4.6 4.6 4.6 4.3 4.4 4.7 4.8 5.0 5.1 5.3 5.3 5.5 5.5 5.3 5.1 5.1 5.1 5.0 4.9 4.9 4.7 4.5 4.2 4.1 4.1 4.1 4.2 4.3 5.0 6.3 7.2 6.9 6.6 5.7 5.9 5.9 6.1 6.3
6.5 4.8 4.8 4.2 4.8 4.8 4.8 4.6 4.7 4.8 4.9 5.1 5.1 5.3 5.4 5.4 5.4 5.3 5.1 5.1 5.1 5.1 5.1 5.0 4.9 4.7 4.5 4.2 4.0 4.1 4.0 4.5 4.6 4.8 6.2 7.0 7.2 6.8 6.0 6.2 6.0 6.1 6.3
6.9 6.6 5.3 4.6 4.8 4.7 4.8 4.9 5.1 5.0 5.1 5.2 5.4 5.3 5.3 5.4 5.1 5.0 4.9 4.7 4.9 5.1 5.2 5.0 4.7 4.5 4.2 4.0 4.0 4.2 4.3 5.0 4.9 4.6 7.1 8.7 8.0 6.7 6.6 6.4 6.2 6.2 6.7
9.1 6.8 4.6 4.8 5.0 5.1 4.8 5.0 5.0 5.0 5.1 5.0 4.9 5.2 5.2 5.0 5.0 4.8 4.6 4.7 4.9 5.1 5.1 4.8 4.5 4.2 3.9 3.7 3.9 4.6 5.4 5.5 5.5 6.8 6.8 6.7 7.0 6.4 6.5 6.0 5.9 5.9 5.6
8.2 5.5 4.7 5.2 5.0 5.3 4.8 4.9 5.0 5.0 4.7 4.6 4.8 4.9 4.9 5.0 4.8 4.6 4.6 4.7 4.9 5.0 4.8 4.6 4.3 4.1 3.9 3.9 4.1 5.0 5.7 6.0 6.7 8.2 6.8 5.7 5.3 6.6 6.9 6.5 6.0 5.7 5.7
5.0 5.9 5.1 6.0 5.5 5.3 5.0 4.9 4.9 4.5 4.3 4.3 4.6 4.6 4.7 4.7 4.6 4.4 4.4 4.5 4.4 4.3 4.4 4.3 4.3 4.1 4.0 4.2 5.0 5.7 6.3 6.4 6.4 8.2 5.8 5.1 5.3 6.6 6.8 6.5 6.2 6.0 5.8
5.9 6.3 6.3 5.6 5.4 5.2 4.9 4.9 4.8 4.5 4.4 4.5 4.3 4.4 4.4 4.4 4.5 4.5 4.4 4.3 4.2 4.2 4.3 4.3 4.4 4.4 4.6 5.1 5.5 5.9 6.3 6.6 6.5 8.2 6.5 4.6 5.3 6.3 6.7 6.5 6.4 6.2 6.2
5.8 6.4 6.3 6.2 5.0 5.0 5.0 4.8 4.6 4.3 4.3 4.2 4.0 4.2 4.5 4.7 4.6 4.6 4.5 4.5 4.6 4.6 4.5 4.5 4.5 4.8 5.3 5.7 6.4 7.1 6.9 7.2 6.9 8.2 6.9 4.9 5.4 6.2 6.5 6.2 6.2 6.3 6.3
4.9 6.8 5.8 6.3 5.4 4.7 4.6 4.5 4.3 4.1 4.2 4.2 4.5 4.9 4.9 5.0 5.0 4.8 4.9 4.9 4.9 4.8 4.9 4.8 5.0 5.5 5.7 6.1 6.7 8.3 8.1 8.1 8.2 8.6 5.5 4.8 5.7 6.2 6.4 6.3 6.2 6.0 6.1
5.4 6.3 7.5 7.6 6.2 5.0 4.4 4.2 4.3 4.3 4.4 4.7 5.1 5.3 5.7 6.4 6.0 5.8 5.4 5.0 5.0 5.2 5.2 5.7 6.4 6.7 6.4 6.6 7.2 8.3 8.6 8.5 8.1 8.9 5.4 5.2 6.0 6.5 6.5 6.2 5.9 5.9 5.8
7.0 8.4 8.3 8.0 6.9 6.6 6.9 5.3 5.6 5.3 5.8 6.7 6.7 6.0 6.1 8.0 8.2 7.4 6.0 6.0 6.1 6.1 6.2 6.6 7.5 7.7 8.0 8.1 8.4 8.4 8.3 8.6 8.6 8.9 5.3 5.6 6.2 6.9 6.7 6.4 6.1 5.8 5.5
8.4 8.3 8.2 7.2 8.4 8.4 7.6 8.1 8.0 7.5 8.4 8.7 8.0 8.5 8.8 8.9 8.5 7.0 6.2 5.9 5.8 5.9 6.4 7.0 7.4 8.4 8.3 8.8 8.9 8.6 8.7 8.9 9.1 9.1 6.9 6.4 6.1 6.7 6.9 6.7 6.1 5.7 5.5
8.2 8.5 8.1 8.1 7.8 7.9 8.7 8.7 8.3 8.6 8.7 8.2 8.7 8.5 7.7 6.5 7.7 7.5 8.2 7.1 8.0 8.5 8.9 8.7 8.5 8.6 8.7 9.1 9.2 9.0 9.2 9.0 9.1 9.2 8.3 6.0 5.9 6.5 6.9 6.7 6.3 5.8 5.5
8.5 8.3 7.3 7.5 7.8 7.6 8.0 7.5 6.3 6.5 7.0 7.4 7.3 6.9 5.6 6.3 6.5 6.8 7.7 8.4 8.4 7.6 7.3 7.2 7.1 7.3 7.7 8.1 8.6 8.6 8.7 8.9 9.1 9.3 9.1 6.3 6.4 6.2 6.6 7.0 7.0 6.7 6.2
8.6 8.4 8.3 7.9 8.1 7.9 7.1 7.0 6.7 6.0 6.3 5.7 5.4 5.3 6.0 6.4 6.8 7.2 6.4 6.5 6.5 6.1 6.7 6.9 7.1 7.2 7.7 8.1 7.9 8.2 8.3 8.7 8.9 8.8 9.0 8.4 7.0 6.2 6.2 6.7 7.2 7.6 7.4
8.6 8.7 8.6 8.4 8.3 7.1 6.7 6.0 4.9 5.4 4.6 4.6 4.8 4.2 3.8 4.3 4.3 4.7 4.9 4.9 6.3 7.0 7.4 7.5 7.5 7.4 6.8 8.0 7.1 8.4 8.4 8.3 7.9 8.4 8.8 9.0 8.0 6.6 6.2 6.7 7.5 8.3 8.4
8.7 8.9 8.7 9.2 7.4 6.1 5.5 5.6 4.3 2.9 2.0 2.8 4.1 4.6 4.8 5.8 6.3 6.2 4.9 5.3 6.6 7.8 8.4 7.7 6.4 5.9 6.2 6.6 6.7 6.5 7.2 8.0 8.3 8.8 9.0 8.5 8.8 8.7 6.9 7.7 8.3 9.0 8.9
8.1 8.6 8.1 7.8 6.4 4.6 3.1 2.3 1.2 2.1 1.8 2.8 3.8 4.4 5.0 5.5 6.2 6.4 6.1 6.3 7.3 8.1 7.4 7.2 6.1 6.3 6.5 6.7 7.5 6.7 6.1 6.3 7.8 8.5 8.5 8.9 8.9 8.9 8.7 9.0 8.9 9.2 9.1
7.9 7.3 8.0 6.1 5.4 3.9 3.1 3.2 4.2 4.3 3.8 4.1 4.7 5.0 5.2 6.2 7.4 8.9 8.1 8.0 8.3 8.1 7.0 6.9 7.4 7.0 6.9 6.7 8.8 8.4 6.6 6.8 7.4 6.9 7.0 8.8 8.8 8.6 8.9 8.9 8.9 9.5 9.1
7.0 7.1 5.9 5.4 5.8 4.8 5.8 6.4 5.5 5.2 4.8 5.2 6.5 6.1 6.9 8.4 7.9 7.8 8.4 8.6 8.6 7.2 7.3 7.7 7.4 7.3 7.0 6.9 6.7 7.1 7.1 7.1 6.5 6.4 7.3 7.3 7.9 8.4 8.8 9.0 9.1 9.0 8.9
7.1 6.1 6.0 7.3 6.4 6.9 7.8 8.2 7.0 6.4 6.4 7.2 7.9 7.8 8.7 8.4 8.5 8.5 8.2 7.9 7.9 6.8 7.2 7.1 7.0 6.8 6.9 6.8 6.4 6.8 6.7 7.1 6.7 7.2 5.8 6.6 6.3 8.1 8.4 9.0 8.9 8.9 8.9
6.8 6.3 6.6 8.2 7.6 7.4 8.2 8.2 8.0 7.5 7.2 7.3 7.2 7.1 8.3 8.2 9.0 9.2 9.0 8.4 7.8 7.5 6.8 7.1 7.2 7.1 6.3 6.4 7.0 6.5 6.6 6.3 7.2 7.1 6.7 6.2 6.0 6.3 7.7 8.7 8.9 8.8 9.3
6.5 7.4 7.9 7.7 8.2 8.3 7.6 7.9 7.5 7.9 7.2 7.5 6.6 7.3 7.4 8.5 9.0 9.2 9.2 8.9 8.5 8.4 7.4 7.3 8.0 6.6 6.9 6.7 6.7 7.8 6.3 6.5 6.5 6.7 7.2 6.8 6.8 7.5 6.6 7.3 8.5 9.0 9.4
7.8 6.7 7.7 8.3 8.6 7.8 8.0 7.8 7.2 7.5 5.8 6.9 6.7 6.6 7.5 7.6 8.7 9.1 9.1 8.8 8.5 8.4 8.0 7.2 7.0 6.8 6.6 6.6 6.7 6.6 6.6 6.5 6.2 6.5 6.9 6.7 6.9 6.9 7.0 7.6 8.0 8.7 9.1
7.5 7.6 7.3 8.2 8.3 7.9 8.4 8.2 7.6 7.7 7.6 7.1 7.3 7.1 7.7 7.2 7.8 8.8 8.7 7.8 8.0 7.9 7.4 7.1 7.2 7.0 6.7 6.7 6.4 6.3 6.4 6.6 6.5 7.0 6.1 6.2 6.6 7.0 7.2 7.4 7.5 8.2 8.9
Wind_Speed
16 21 20 19 19 20 21 21 21 22 22 21 21 19 19 18 17 17 18 18 17 17 18 17 18 17 17 16 15 13 11 8 5 6 7 11 13 19 21 21 21 16 15
18 23 21 20 19 20 21 21 22 22 21 21 20 18 17 17 17 17 17 17 17 18 18 18 18 18 17 16 15 13 12 13 12 5 3 14 15 17 20 19 18 16 16
19 22 22 21 20 21 21 22 22 22 21 19 18 16 16 16 17 16 17 17 18 18 18 18 18 17 17 16 15 15 15 17 17 15 3 14 13 18 21 14 17 17 15
19 23 21 20 19 20 21 21 21 21 20 18 17 17 17 16 17 16 16 17 17 17 16 16 16 16 16 15 15 14 16 19 22 19 11 12 17 21 19 18 16 17 16
16 23 22 22 20 19 21 20 20 20 19 18 18 17 16 16 16 16 16 16 16 15 15 15 15 14 13 13 13 17 19 22 27 13 25 21 18 17 17 17 16 15 15
14 24 23 20 22 18 22 21 20 19 19 18 17 16 15 16 16 15 16 16 15 15 16 15 14 12 12 13 15 17 19 24 26 23 21 22 19 17 16 15 15 14 14
11 23 20 19 20 19 21 20 20 19 19 18 17 16 16 15 15 15 16 15 15 16 14 12 11 11 11 13 15 17 19 22 23 18 20 18 17 15 15 15 15 14 13
13 14 18 19 19 20 19 19 19 19 19 17 17 16 16 15 14 14 14 13 13 12 11 9 9 9 9 10 12 14 16 21 21 13 18 17 15 14 14 14 13 13 13
10 15 16 18 20 21 19 19 18 19 19 17 16 16 15 14 14 13 12 11 9 9 7 6 5 4 5 6 8 12 13 16 20 14 17 13 16 16 16 16 15 14 12
8 16 15 18 18 17 16 17 17 18 17 16 16 15 14 14 14 13 12 8 6 4 3 2 2 2 4 4 7 8 14 12 18 13 16 11 15 15 16 17 18 16 15
11 12 15 16 17 19 16 15 16 17 16 16 13 14 16 15 15 14 11 10 7 4 2 2 2 5 6 8 8 9 15 16 17 13 11 10 13 14 16 17 17 17 17
7 12 10 13 16 18 16 16 15 15 14 14 12 13 12 6 11 12 12 9 9 8 6 6 4 5 8 11 5 11 17 16 16 17 9 11 12 13 14 16 18 17 16
12 10 9 6 9 12 14 14 13 12 13 14 12 6 9 5 5 8 9 5 8 10 8 9 8 5 9 7 9 10 11 13 15 15 8 11 11 12 13 14 14 16 16
14 12 11 7 7 10 10 10 13 11 11 10 8 5 6 5 3 7 7 8 4 11 8 11 12 14 12 13 11 7 12 11 11 12 8 6 7 10 10 10 12 15 17
14 14 12 7 6 9 6 10 15 12 14 12 10 8 10 8 5 4 5 7 11 16 15 14 15 14 13 14 17 13 10 13 14 14 12 4 5 5 7 10 11 14 17
15 14 12 11 9 11 10 13 13 14 13 13 12 9 6 5 3 6 10 13 15 16 16 13 10 8 8 11 10 15 14 13 15 17 12 6 1 3 6 9 11 15 18
14 14 12 11 14 11 12 16 13 11 12 8 8 11 13 14 12 10 9 10 12 10 8 11 12 14 9 11 7 12 14 15 16 19 14 15 5 8 7 6 7 14 18
16 14 13 11 12 11 11 10 10 10 14 8 9 12 11 9 11 12 10 8 6 4 5 7 6 5 5 5 4 6 6 12 16 16 15 16 6 4 9 5 6 15 21
16 14 12 13 13 10 8 8 6 5 9 10 12 10 9 12 10 9 8 8 8 7 8 6 4 4 4 5 6 5 5 5 10 16 14 12 9 4 6 9 16 17 9
14 15 12 11 11 7 6 6 7 6 8 10 11 8 8 7 3 4 9 6 5 4 4 3 2 4 4 4 7 7 5 4 10 9 12 10 7 10 9 10 9 13 8
15 15 15 13 10 7 7 5 4 4 4 4 8 9 10 9 6 4 6 5 5 4 3 2 2 4 3 4 4 6 4 6 5 6 10 11 14 17 17 13 12 9 13
14 13 15 14 11 10 6 5 5 5 5 6 11 8 9 6 4 8 4 5 8 4 4 4 3 3 3 3 4 6 6 6 4 8 4 5 6 11 12 16 17 13 15
11 12 11 11 12 12 7 7 6 5 5 4 5 4 9 7 6 3 4 5 5 4 3 4 3 5 4 4 6 4 6 4 7 3 6 6 6 4 10 15 13 17 11
7 8 12 14 14 8 9 7 8 5 6 4 5 6 8 8 4 2 3 2 2 3 3 3 5 4 4 5 3 4 4 4 5 7 2 5 5 6 6 9 10 13 14
12 14 14 14 10 9 6 7 5 4 4 4 5 7 5 10 12 9 7 7 3 2 4 4 4 5 3 3 3 2 4 3 4 4 7 4 4 4 5 8 9 15 14
15 10 9 11 9 9 5 5 7 5 5 5 3 4 2 3 2 1 6 9 8 6 5 5 6 6 5 3 3 3 3 2 4 5 4 4 5 4 4 5 7 11 18
Wind_Direction
122 127 120 116 114 113 111 108 104 99 95 92 87 85 83 83 83 82 79 79 80 76 71 66 63 59 54 47 39 28 13 0 4 49 75 77 70 67 53 40 39 42 39
125 126 119 115 115 114 112 109 104 102 98 93 90 88 89 87 84 81 82 80 78 75 71 66 61 55 49 41 31 18 360 343 340 20 85 74 57 58 59 49 46 40 43
123 126 122 115 118 115 112 108 107 103 99 98 96 94 89 86 84 81 79 79 77 73 69 64 60 52 44 35 24 8 355 344 335 334 328 65 62 54 52 48 47 45 48
123 132 126 118 118 114 114 109 106 103 101 99 96 90 89 87 85 85 82 79 77 74 71 68 61 53 45 33 19 4 353 347 334 328 106 106 62 44 40 37 46 41 41
130 120 126 125 119 121 111 104 102 98 97 95 93 92 90 89 89 83 77 76 77 76 75 71 63 54 45 31 18 5 359 349 337 335 71 60 45 39 37 33 30 37 39
118 115 123 127 125 116 105 103 100 97 95 93 94 95 94 91 86 80 74 72 73 74 70 63 55 46 38 27 14 7 1 354 348 67 69 60 45 34 29 28 28 27 27
108 117 126 134 116 107 105 107 103 103 100 99 97 97 95 94 90 81 77 77 78 73 67 62 53 42 34 27 18 8 359 356 339 73 85 75 54 36 31 27 22 21 19
109 112 118 121 114 110 109 107 107 104 100 98 98 96 94 93 91 89 89 87 82 81 74 60 43 39 35 30 15 2 353 348 343 336 90 73 59 34 20 17 18 16 8
107 134 121 117 108 108 110 112 110 107 108 110 107 103 102 108 112 107 96 85 81 79 71 58 45 29 11 18 14 354 345 338 333 25 70 61 51 37 17 11 4 358 359
157 132 128 134 125 112 110 112 113 112 112 111 113 123 132 133 129 120 111 106 100 80 72 47 2 309 281 316 325 353 340 349 350 352 75 63 55 41 19 3 355 352 352
161 157 141 135 129 122 121 120 115 117 123 124 136 152 158 156 153 144 146 148 146 159 185 215 256 275 289 280 279 322 344 16 335 346 85 60 43 31 22 5 356 351 349
166 130 119 129 140 145 131 148 142 146 150 152 165 176 198 175 146 163 170 167 172 181 190 221 229 288 332 3 342 349 5 349 331 348 64 48 34 26 19 12 2 357 359
131 111 109 94 121 142 143 164 155 175 151 149 173 192 141 106 187 172 144 168 231 216 199 218 228 39 15 353 341 344 337 337 329 347 18 33 29 20 19 18 4 360 1
119 119 107 109 96 107 129 150 158 136 155 148 116 60 56 73 353 352 97 191 172 41 26 31 27 18 8 352 322 343 320 317 336 322 349 60 45 31 22 25 9 2 358
133 131 136 139 129 165 147 80 64 47 64 71 63 51 19 9 44 16 19 16 44 42 32 22 22 5 350 343 332 325 330 331 325 316 324 80 51 42 33 32 16 4 358
133 131 136 142 157 99 87 89 78 59 67 61 61 40 31 353 352 25 40 48 46 44 31 20 357 326 334 335 340 340 333 337 341 337 341 351 119 97 56 38 24 7 355
135 137 146 149 117 107 98 88 89 93 88 83 91 63 45 39 58 71 69 54 47 48 20 16 358 3 349 347 341 333 329 353 345 328 336 323 249 163 116 80 25 1 354
137 148 142 133 116 104 111 124 130 137 106 90 68 69 69 59 46 59 66 58 14 20 33 32 18 357 341 338 323 303 338 351 318 306 322 334 2 0 160 122 25 357 345
137 142 130 128 119 110 109 102 105 119 107 113 90 95 91 75 80 92 92 67 342 34 42 37 6 338 340 323 317 326 347 328 329 326 312 315 300 25 31 356 358 343 336
143 134 135 116 125 137 148 172 169 142 134 120 114 116 112 107 139 159 118 101 360 23 50 38 351 345 324 322 326 323 325 313 312 301 286 275 350 21 13 356 4 324 337
139 141 131 133 141 164 179 177 145 141 127 105 140 150 161 143 113 37 39 75 72 26 7 359 11 333 315 317 347 319 298 286 327 305 20 5 357 8 352 349 346 352 355
144 137 142 153 168 196 194 162 158 140 150 161 131 148 130 121 85 122 69 21 38 14 342 20 349 304 303 347 329 310 319 310 332 344 359 351 352 357 340 332 326 352 6
124 136 156 172 182 209 160 144 143 144 102 119 128 156 135 152 138 115 76 57 42 13 347 331 313 343 323 318 304 338 331 318 324 331 337 337 335 336 328 325 350 342 321
139 160 182 188 190 177 155 159 149 153 166 175 170 144 148 149 153 98 56 45 39 336 313 323 334 324 323 315 331 317 310 315 326 318 358 328 321 349 326 329 322 327 314
177 190 197 182 168 137 162 147 163 140 125 138 111 119 158 172 183 194 207 212 211 331 323 320 331 318 305 289 293 315 306 307 315 307 307 314 314 324 311 311 315 308 317
182 181 144 158 146 135 176 157 175 150 126 122 138 140 186 198 139 167 59 49 9 346 350 336 322 309 289 280 281 302 277 273 291 279 283 302 296 299 277 287 322 319 306